Wind_Speed
43 48 45 35 42 45 49 49 51 42 38 52 52 52 39 33 32 32 32 29 28 30 31 32 33 34 36 35 36 34 35 35 34 35 36 37 40 41 41 42 42 42 44 45
45 50 41 43 46 49 51 53 53 51 43 54 55 56 50 39 34 30 29 26 27 32 32 33 35 33 31 32 31 31 34 35 36 37 39 41 44 43 44 44 46 46 45 44
46 46 44 44 47 49 49 54 53 56 50 54 57 63 52 44 38 33 30 33 33 33 35 36 34 34 33 33 35 35 36 37 40 42 43 44 45 46 46 44 45 46 46 45
48 40 41 44 47 43 50 44 49 53 55 61 54 67 56 45 44 37 36 35 32 34 35 39 39 41 40 39 36 36 38 40 44 46 47 48 48 48 46 47 49 50 50 50
45 47 47 47 46 48 51 51 51 53 57 62 65 64 56 51 44 36 34 35 33 35 37 39 38 38 39 40 39 39 40 44 48 50 51 49 47 46 46 49 51 52 51 51
44 45 48 47 47 47 47 52 55 54 58 62 59 59 57 52 51 43 38 36 36 35 33 32 31 34 39 41 41 41 43 45 49 51 52 52 50 49 46 46 49 53 54 54
47 48 49 51 51 48 47 51 57 60 60 62 60 60 55 57 49 48 44 43 41 40 37 39 34 36 40 37 38 41 46 49 51 51 53 56 54 51 47 46 48 53 57 57
59 55 55 53 52 51 54 53 57 59 62 62 63 62 57 60 58 50 48 49 49 46 47 33 28 23 25 33 35 40 45 50 52 56 59 60 58 53 49 48 47 49 54 59
64 65 61 59 56 57 61 62 56 59 61 65 63 67 58 59 59 62 53 54 53 51 42 32 38 36 40 46 41 42 46 53 56 58 58 57 55 50 48 46 44 45 47 49
67 71 67 63 61 63 64 62 62 64 65 66 65 67 68 62 60 64 65 62 50 27 40 53 44 44 53 51 52 50 52 55 55 55 55 55 52 51 47 46 48 49 48 48
69 72 69 66 65 58 58 59 61 64 69 73 74 68 63 63 67 66 65 62 63 59 59 53 47 49 58 59 55 55 53 54 55 54 54 53 53 51 46 48 51 52 51 49
71 71 64 62 62 61 68 73 74 74 75 78 81 81 56 60 69 73 74 69 68 64 61 57 56 65 64 56 56 57 57 57 58 58 53 53 51 49 49 50 52 54 52 55
64 62 63 63 53 48 49 47 57 60 65 72 79 81 51 64 68 68 73 74 70 66 60 58 63 62 59 59 60 62 59 55 56 54 51 47 44 45 48 50 50 52 61 62
71 72 70 68 66 63 63 69 51 45 52 54 65 56 50 58 63 67 69 72 69 71 64 64 68 63 63 63 61 56 60 54 48 46 47 45 47 52 53 55 60 62 63 65
84 92 95 95 96 89 88 79 73 79 85 90 85 85 61 44 39 47 56 61 63 66 67 64 59 54 57 60 63 60 63 59 55 52 53 54 55 60 59 60 63 65 67 67
87 94 93 96 97 97 96 95 93 98 100 95 85 78 74 76 81 83 65 49 51 46 35 39 49 51 55 61 63 56 56 55 56 59 64 60 57 59 60 62 63 63 63 62
74 78 88 95 91 90 92 96 94 92 87 90 86 89 75 73 73 76 75 67 67 56 50 51 59 64 62 62 64 62 66 67 63 66 68 59 58 60 62 63 62 62 63 61
63 66 67 80 72 78 78 77 78 81 89 89 84 74 71 69 71 68 66 72 73 68 63 69 75 77 75 73 71 71 75 75 75 72 66 61 61 61 63 62 61 63 52 55
70 73 85 80 72 64 67 72 71 72 69 63 70 67 67 63 58 59 61 66 66 77 85 86 85 84 89 88 82 79 79 75 75 71 66 66 67 65 60 55 55 53 51 51
88 86 88 82 93 89 77 84 80 64 66 61 67 69 64 61 62 64 64 60 53 61 65 70 76 81 84 89 88 83 77 70 71 71 70 72 71 66 59 61 59 55 49 44
83 85 86 82 78 76 78 76 77 79 76 71 68 69 64 61 67 65 63 66 80 78 79 76 77 77 78 76 75 76 72 67 71 71 75 74 74 69 65 68 62 56 47 42
83 84 86 86 84 78 74 77 78 82 78 78 65 67 72 78 76 76 86 90 81 66 64 59 62 70 71 71 70 68 67 68 68 67 68 72 74 73 69 71 71 67 66 59
73 76 81 85 88 81 74 70 64 67 73 81 92 98 101 95 87 96 88 76 69 67 62 62 64 60 66 65 65 64 67 68 72 76 67 65 67 72 79 76 78 75 76 76
71 70 74 77 78 81 78 81 91 97 98 99 97 96 97 96 85 88 64 64 77 74 68 68 66 63 66 61 67 68 71 74 75 77 70 65 64 78 81 82 80 78 82 82
65 66 71 76 77 82 81 77 76 81 85 89 91 88 78 73 70 67 71 69 73 64 72 78 73 76 71 68 67 69 73 77 79 74 72 70 66 70 77 78 80 80 81 87
54 58 62 67 69 75 81 91 100 100 97 95 93 87 87 89 80 80 71 77 77 78 78 69 69 71 84 74 72 74 72 79 75 74 70 74 78 82 82 85 83 80 81 83
Wind_Direction
279 278 285 295 284 283 283 286 288 292 291 288 289 288 292 292 291 290 291 295 289 280 280 285 288 287 283 284 281 282 284 283 282 281 282 285 288 288 290 292 292 289 288 287
278 278 289 282 280 282 284 286 286 287 290 283 287 288 289 289 291 289 291 285 279 283 284 288 287 290 280 277 278 285 287 284 280 280 282 286 289 291 294 295 293 292 290 288
273 279 279 279 280 279 282 284 290 289 287 282 287 284 286 287 289 289 290 288 283 281 282 288 286 287 281 275 280 286 284 281 279 279 282 284 287 290 290 290 292 291 291 290
270 276 276 277 276 282 274 279 279 282 284 286 280 285 286 292 289 290 290 284 275 282 281 289 288 287 280 275 281 283 283 282 280 279 281 284 286 287 288 290 290 288 288 288
278 277 275 272 275 276 280 278 276 276 277 280 281 287 296 293 292 294 288 288 285 280 280 283 283 279 276 278 281 280 278 276 276 278 281 284 285 287 291 292 289 287 286 286
276 275 275 278 275 272 274 274 276 275 275 273 279 286 290 293 294 294 293 287 288 287 281 275 273 275 273 275 274 272 273 276 278 279 281 281 281 282 284 286 286 285 286 287
276 273 270 271 274 276 276 274 272 270 269 274 280 279 287 288 292 293 293 290 290 288 293 293 284 267 263 261 261 266 271 272 273 276 278 280 282 285 283 283 283 278 280 283
276 272 275 272 269 270 269 270 269 274 274 276 274 273 284 289 291 289 289 290 288 288 298 294 294 281 246 264 266 267 268 271 273 274 277 281 285 285 282 283 284 280 274 275
278 274 274 272 271 270 267 268 275 273 270 271 273 276 276 280 286 289 286 285 291 294 287 284 291 285 255 280 275 273 270 269 273 276 280 284 285 284 283 281 282 282 279 278
284 280 278 276 276 272 271 274 273 272 273 271 268 273 281 283 284 285 288 291 292 270 282 295 290 281 280 283 280 279 275 276 278 279 283 287 286 283 281 278 281 279 279 281
285 283 278 277 278 276 275 271 269 270 271 274 275 269 272 275 278 282 287 288 286 286 285 284 284 279 277 276 283 278 279 276 278 280 281 281 282 281 281 280 277 278 282 288
280 284 282 278 275 275 274 272 270 270 276 272 267 268 268 270 275 279 279 281 280 280 283 284 280 274 278 280 280 278 277 279 279 277 278 278 279 279 280 278 276 278 283 289
274 273 276 279 273 275 283 278 281 276 276 273 273 272 266 267 267 271 278 279 278 281 280 277 274 274 275 275 278 281 282 280 277 278 278 280 283 286 282 282 284 282 292 292
270 270 265 272 271 267 274 278 277 270 265 279 283 286 277 264 265 266 268 270 272 274 272 271 274 275 271 269 271 270 274 273 273 271 272 275 282 290 286 281 285 288 287 285
267 269 269 271 273 271 273 276 269 270 276 279 280 283 282 279 274 279 270 271 275 276 276 277 271 259 260 262 266 265 268 266 268 272 279 279 282 288 286 282 281 281 282 283
267 269 270 270 272 274 274 275 277 278 282 285 286 285 277 282 288 282 277 278 270 261 264 264 250 258 259 263 265 265 267 267 278 282 292 291 289 281 278 279 280 282 282 282
274 277 280 278 278 280 276 275 278 282 282 287 283 289 286 280 278 280 278 272 263 268 264 267 267 272 264 263 260 263 277 283 289 291 291 284 280 279 279 282 281 278 278 281
260 261 268 279 277 272 280 282 284 282 279 279 284 282 277 275 269 267 265 267 263 258 256 268 269 269 270 270 267 269 275 280 285 288 287 278 277 275 278 281 276 274 281 285
255 261 261 264 273 276 273 274 281 287 285 286 279 276 272 269 260 252 251 256 260 263 262 262 264 267 265 270 275 279 281 283 284 285 278 272 269 274 276 270 272 281 287 293
259 261 257 260 262 269 271 274 277 279 277 279 279 276 273 265 263 256 247 247 270 273 269 270 267 264 264 264 269 274 278 278 278 274 273 269 270 273 271 267 271 278 286 289
266 263 261 264 272 275 273 275 271 268 268 272 263 256 256 252 257 255 252 259 276 278 270 265 262 259 262 267 270 274 272 273 270 270 271 271 270 271 269 272 272 276 282 286
266 266 265 260 256 260 265 263 265 263 262 254 247 253 261 267 270 274 283 283 281 271 265 262 262 263 264 264 263 264 266 266 266 267 268 271 274 271 272 271 270 271 276 286
267 264 263 262 262 260 256 256 253 240 247 249 258 265 269 265 274 280 276 270 263 260 260 262 263 262 266 262 260 261 259 259 261 263 267 269 268 268 273 270 269 269 271 276
263 263 260 260 261 262 257 247 249 255 257 257 256 260 261 264 263 262 263 264 258 258 265 265 263 261 259 257 263 261 259 259 258 261 262 262 272 274 267 263 261 268 270 273
267 263 262 261 261 252 249 249 247 249 249 249 249 249 246 245 245 242 244 258 252 254 277 263 257 257 256 250 256 257 255 253 253 255 257 263 268 270 270 267 261 266 268 274
278 275 272 270 265 263 258 255 254 253 253 252 253 250 250 252 249 242 254 246 257 265 267 257 264 266 262 247 253 252 254 253 253 251 256 256 258 262 265 273 276 277 277 277
Height
5813 5807 5810 5817 5809 5805 5801 5799 5795 5803 5804 5788 5788 5783 5793 5797 5795 5793 5791 5792 5790 5787 5786 5783 5781 5780 5777 5775 5775 5774 5773 5771 5771 5771 5770 5769 5768 5766 5765 5764 5763 5761 5761 5760
5803 5794 5806 5803 5800 5796 5793 5790 5787 5788 5794 5780 5775 5769 5776 5785 5787 5787 5784 5784 5781 5778 5777 5775 5772 5770 5768 5767 5765 5764 5763 5762 5761 5760 5759 5758 5756 5756 5755 5754 5752 5751 5750 5748
5790 5789 5791 5791 5789 5785 5785 5779 5779 5773 5776 5770 5765 5753 5765 5772 5775 5777 5778 5775 5773 5771 5768 5766 5763 5760 5759 5758 5756 5754 5753 5751 5750 5749 5748 5747 5746 5745 5743 5742 5741 5739 5738 5736
5775 5783 5781 5777 5774 5778 5769 5776 5769 5763 5760 5750 5756 5733 5749 5761 5762 5766 5766 5765 5764 5761 5758 5755 5752 5750 5749 5747 5746 5744 5742 5741 5738 5737 5737 5737 5736 5734 5733 5731 5729 5726 5725 5723
5770 5769 5769 5767 5766 5762 5760 5759 5757 5756 5750 5742 5735 5735 5738 5743 5746 5752 5751 5749 5752 5752 5748 5745 5743 5740 5738 5737 5736 5733 5731 5729 5727 5727 5727 5726 5725 5724 5722 5719 5716 5713 5711 5710
5758 5756 5754 5755 5753 5751 5751 5748 5742 5740 5737 5726 5730 5733 5719 5731 5733 5736 5738 5737 5736 5735 5736 5734 5732 5730 5728 5726 5725 5723 5720 5718 5716 5715 5715 5714 5713 5713 5712 5709 5705 5701 5698 5696
5741 5741 5742 5741 5738 5739 5739 5734 5728 5722 5720 5718 5721 5718 5710 5711 5721 5723 5724 5723 5722 5719 5719 5716 5718 5716 5714 5712 5712 5711 5710 5707 5705 5705 5702 5700 5701 5701 5699 5698 5694 5690 5687 5684
5722 5726 5728 5728 5725 5724 5721 5721 5717 5709 5709 5706 5708 5695 5699 5703 5704 5709 5708 5708 5709 5706 5705 5705 5702 5702 5703 5703 5701 5699 5698 5696 5694 5691 5688 5687 5687 5688 5686 5684 5682 5680 5676 5671
5705 5703 5710 5710 5710 5708 5704 5703 5707 5695 5698 5690 5691 5693 5691 5693 5694 5692 5693 5693 5692 5692 5692 5693 5695 5693 5690 5687 5689 5687 5684 5682 5681 5680 5677 5675 5673 5671 5671 5669 5667 5663 5661 5659
5687 5679 5694 5692 5693 5690 5686 5691 5687 5681 5677 5674 5679 5676 5683 5683 5684 5679 5676 5677 5678 5678 5676 5677 5680 5679 5675 5669 5669 5669 5669 5667 5667 5666 5664 5663 5661 5656 5653 5652 5651 5647 5645 5644
5668 5664 5678 5671 5674 5676 5673 5669 5668 5665 5660 5653 5655 5665 5677 5671 5667 5662 5663 5663 5662 5663 5662 5661 5663 5659 5654 5654 5655 5652 5651 5651 5649 5648 5647 5647 5644 5642 5640 5636 5632 5631 5630 5628
5654 5643 5636 5649 5655 5658 5652 5649 5650 5640 5642 5637 5629 5629 5670 5662 5654 5650 5647 5648 5644 5647 5647 5646 5642 5635 5636 5638 5637 5635 5633 5632 5631 5630 5629 5628 5627 5625 5623 5620 5617 5615 5613 5610
5643 5625 5621 5626 5636 5635 5628 5632 5629 5625 5621 5614 5611 5612 5652 5644 5642 5641 5633 5632 5630 5630 5631 5626 5619 5620 5619 5618 5618 5617 5615 5614 5613 5613 5611 5611 5610 5608 5606 5604 5601 5599 5596 5590
5619 5606 5604 5604 5613 5623 5612 5614 5615 5608 5599 5601 5596 5601 5616 5627 5627 5624 5619 5615 5612 5611 5608 5603 5601 5602 5599 5600 5600 5600 5600 5598 5597 5597 5595 5595 5595 5592 5588 5586 5584 5581 5577 5572
5590 5582 5583 5582 5585 5594 5593 5597 5598 5590 5588 5579 5585 5581 5595 5606 5609 5603 5598 5600 5597 5593 5587 5586 5585 5579 5577 5580 5582 5581 5583 5583 5582 5583 5583 5582 5578 5576 5572 5568 5565 5561 5558 5555
5572 5558 5561 5551 5560 5562 5562 5571 5569 5566 5565 5560 5559 5554 5577 5584 5582 5582 5586 5585 5574 5569 5570 5569 5566 5564 5564 5563 5562 5561 5563 5565 5565 5563 5563 5561 5560 5557 5553 5550 5546 5544 5541 5536
5554 5546 5543 5527 5539 5533 5520 5545 5550 5546 5543 5541 5533 5540 5550 5550 5552 5556 5558 5558 5553 5557 5556 5555 5551 5545 5546 5545 5545 5545 5543 5544 5542 5544 5543 5542 5540 5536 5534 5532 5529 5525 5520 5517
5538 5534 5527 5513 5521 5499 5506 5520 5524 5520 5523 5526 5515 5518 5521 5521 5525 5528 5528 5529 5533 5534 5533 5530 5528 5526 5525 5525 5527 5527 5526 5524 5524 5524 5524 5523 5520 5518 5516 5513 5510 5506 5503 5501
5516 5512 5505 5501 5495 5490 5493 5504 5508 5500 5494 5500 5484 5487 5486 5488 5490 5495 5502 5502 5501 5504 5507 5506 5504 5502 5501 5500 5501 5503 5503 5502 5502 5502 5502 5501 5499 5499 5497 5494 5490 5488 5485 5482
5490 5488 5484 5483 5470 5468 5486 5487 5487 5484 5471 5471 5463 5459 5459 5468 5468 5469 5476 5478 5483 5484 5485 5487 5485 5483 5479 5479 5481 5482 5482 5482 5483 5480 5480 5480 5481 5479 5478 5474 5472 5470 5467 5464
5458 5459 5458 5461 5456 5460 5459 5459 5462 5459 5453 5450 5441 5439 5441 5440 5438 5440 5449 5457 5459 5461 5460 5461 5461 5462 5460 5461 5462 5464 5462 5462 5461 5461 5460 5459 5460 5459 5455 5455 5454 5452 5451 5446
5429 5431 5433 5431 5432 5432 5435 5434 5436 5430 5426 5423 5422 5420 5415 5413 5419 5420 5423 5426 5428 5431 5434 5435 5439 5440 5440 5439 5439 5441 5443 5441 5442 5441 5442 5442 5441 5440 5440 5439 5437 5434 5434 5429
5404 5409 5403 5402 5400 5413 5414 5411 5400 5392 5394 5398 5395 5393 5389 5395 5398 5402 5402 5401 5405 5410 5413 5413 5414 5417 5417 5418 5416 5418 5419 5420 5419 5420 5422 5424 5423 5420 5421 5420 5419 5416 5413 5410
5380 5385 5374 5372 5382 5383 5386 5384 5376 5379 5373 5370 5370 5375 5372 5369 5375 5380 5382 5384 5383 5387 5391 5391 5393 5395 5395 5395 5398 5397 5398 5399 5400 5400 5401 5400 5400 5398 5397 5395 5394 5395 5392 5389
5360 5359 5355 5352 5358 5357 5355 5357 5353 5344 5342 5339 5343 5345 5346 5343 5349 5349 5357 5359 5359 5364 5366 5367 5366 5369 5370 5370 5374 5374 5377 5375 5378 5379 5379 5376 5377 5379 5377 5374 5370 5370 5368 5367
5341 5337 5332 5325 5328 5325 5332 5330 5327 5321 5313 5313 5314 5318 5319 5317 5319 5321 5330 5331 5327 5333 5343 5342 5342 5342 5349 5345 5349 5349 5349 5351 5351 5354 5355 5354 5355 5357 5356 5354 5352 5352 5348 5346